Weather History for Cleveland Rgnl Jetp, Clevelan, TN

Change the Weather History Date:

Saturday, January 25, 2014

  Actual Average (KCHA) Record (KCHA)
Temperature  
Mean Temperature 26 °F 41 °F  
Max Temperature 37 °F 51 °F 77 °F (1950)
Min Temperature 15 °F 31 °F 2 °F (1905)
Degree Days  
Heating Degree Days 39 24  
Month to date heating degree days 621  
Since 1 July heating degree days 1905  
Cooling Degree Days 0 0  
Month to date cooling degree days 0  
Year to date cooling degree days 0  
Moisture  
Dew Point 6 °F    
Average Humidity 41    
Maximum Humidity 74    
Minimum Humidity 32    
Precipitation  
Precipitation 0.00 in 0.16 in 2.10 in (2004)
Month to date precipitation 3.97  
Year to date precipitation 3.97  
Snow  
Snow 0.00 in 0.00 in - ()
Month to date snowfall 1.4  
Since 1 July snowfall 1.7  
Snow Depth -    
Sea Level Pressure  
Sea Level Pressure 29.95 in    
Wind  
Wind Speed 9 mph (SSW)    
Max Wind Speed 17 mph    
Max Gust Speed -    
Visibility 10 miles    
Events      
T = Trace of Precipitation, MM = Missing Value Source: NWS Daily Summary

Daily Weather History Graph

Daily Weather History Graph

Search for Another Location

Airport:

Trip Planner

Search our weather history database for the weather conditions in past years. The results will help you decide how hot, cold, wet, or windy it might be!

Date:

Astronomy

Jan. 25, 2014 Rise Set
Actual Time 7:43 AM EST 6:00 PM EST
Civil Twilight 7:15 AM EST 6:27 PM EST
Nautical Twilight 6:45 AM EST 6:58 PM EST
Astronomical Twilight 6:15 AM EST 7:28 PM EST
Moon 2:15 AM EST (1/25) 1:00 PM EST (1/25)
Length of Visible Light 11h 11m
Length of Day
10h 17m
Waning Crescent, 34% of the Moon is Illuminated
Jan 25
Waning Crescent
Jan 30
New
Feb 6
First Quarter
Feb 14
Full
Feb 22
Last Quarter

Hourly Weather History & Observations

Time (EST) Temp. Windchill Dew Point Humidity Pressure Visibility Wind Dir Wind Speed Gust Speed Precip Events Conditions
12:15 AM 19.4 °F 11.5 °F -5.8 °F 33% 30.19 in 10.0 mi South 5.8 mph - N/A   Clear
12:35 AM 19.4 °F 10.4 °F -4.0 °F 36% 30.17 in 10.0 mi SSW 6.9 mph - N/A   Clear
12:55 AM 17.6 °F 8.2 °F -2.2 °F 42% 30.16 in 10.0 mi SW 6.9 mph - N/A   Clear
1:15 AM 15.8 °F 6.1 °F -2.2 °F 45% 30.17 in 10.0 mi SW 6.9 mph - N/A   Clear
1:35 AM 15.8 °F 6.1 °F -2.2 °F 45% 30.13 in 10.0 mi SSW 6.9 mph - N/A   Clear
1:55 AM 17.6 °F 5.7 °F -2.2 °F 42% 30.13 in 10.0 mi SSW 10.4 mph - N/A   Clear
2:15 AM 17.6 °F 6.4 °F -2.2 °F 42% 30.13 in 10.0 mi SSW 9.2 mph - N/A   Clear
2:35 AM 17.6 °F 5.7 °F -2.2 °F 42% 30.11 in 10.0 mi SSW 10.4 mph - N/A   Clear
2:55 AM 17.6 °F 5.7 °F -2.2 °F 42% 30.10 in 10.0 mi SSW 10.4 mph - N/A   Clear
3:15 AM 17.6 °F 6.4 °F -0.4 °F 45% 30.08 in 10.0 mi SSW 9.2 mph - N/A   Clear
3:35 AM 19.4 °F 8.6 °F -0.4 °F 42% 30.08 in 10.0 mi SSW 9.2 mph - N/A   Clear
3:55 AM 19.4 °F 8.6 °F -0.4 °F 42% 30.07 in 10.0 mi SW 9.2 mph - N/A   Clear
4:15 AM 19.4 °F 7.9 °F -2.2 °F 39% 30.05 in 10.0 mi SSW 10.4 mph - N/A   Clear
4:35 AM 19.4 °F 6.6 °F -2.2 °F 39% 30.05 in 10.0 mi SSW 12.7 mph - N/A   Clear
4:55 AM 21.2 °F 10.1 °F -2.2 °F 36% 30.03 in 10.0 mi SSW 10.4 mph - N/A   Clear
5:15 AM 21.2 °F 10.1 °F -2.2 °F 36% 30.03 in 10.0 mi SSW 10.4 mph - N/A   Partly Cloudy
5:35 AM 23.0 °F 11.7 °F -2.2 °F 33% 30.02 in 10.0 mi SSW 11.5 mph - N/A   Mostly Cloudy
5:55 AM 23.0 °F 13.1 °F -2.2 °F 33% 30.02 in 10.0 mi SSW 9.2 mph - N/A   Overcast
6:15 AM 23.0 °F 11.1 °F -2.2 °F 33% 30.01 in 10.0 mi SSW 12.7 mph - N/A   Overcast
6:35 AM 23.0 °F 11.7 °F -2.2 °F 33% 29.98 in 10.0 mi South 11.5 mph - N/A   Overcast
6:55 AM 23.0 °F 10.6 °F -2.2 °F 33% 29.96 in 10.0 mi South 13.8 mph - N/A   Overcast
7:15 AM 23.0 °F 12.4 °F -2.2 °F 33% 29.95 in 10.0 mi South 10.4 mph - N/A   Overcast
7:35 AM 23.0 °F 11.7 °F -2.2 °F 33% 29.95 in 10.0 mi SSW 11.5 mph - N/A   Partly Cloudy
7:55 AM 23.0 °F 11.7 °F -0.4 °F 36% 29.94 in 10.0 mi SSW 11.5 mph - N/A   Clear
8:15 AM 23.0 °F 11.1 °F -0.4 °F 36% 29.95 in 10.0 mi South 12.7 mph - N/A   Clear
8:35 AM 23.0 °F 10.6 °F -0.4 °F 36% 29.91 in 10.0 mi South 13.8 mph - N/A   Mostly Cloudy
8:55 AM 24.8 °F 12.9 °F -0.4 °F 34% 29.90 in 10.0 mi South 13.8 mph - N/A   Mostly Cloudy
9:15 AM 24.8 °F 12.9 °F -0.4 °F 34% 29.90 in 10.0 mi SSW 13.8 mph - N/A   Scattered Clouds
9:35 AM 24.8 °F 11.5 °F 1.4 °F 36% 29.90 in 10.0 mi SSW 17.3 mph - N/A   Overcast
9:55 AM 24.8 °F 12.4 °F 1.4 °F 36% 29.89 in 10.0 mi SSW 15.0 mph - N/A   Overcast
10:15 AM 24.8 °F 12.9 °F 1.4 °F 36% 29.87 in 10.0 mi SSW 13.8 mph - N/A   Mostly Cloudy
10:35 AM 26.6 °F 15.7 °F 3.2 °F 37% 29.91 in 10.0 mi SW 12.7 mph - N/A   Mostly Cloudy
10:55 AM 26.6 °F 15.7 °F 3.2 °F 37% 29.90 in 10.0 mi SSW 12.7 mph - N/A   Overcast
11:15 AM 26.6 °F 15.7 °F 3.2 °F 37% 29.90 in 10.0 mi SSW 12.7 mph - N/A   Overcast
11:35 AM 26.6 °F 15.2 °F 3.2 °F 37% 29.90 in 10.0 mi SSW 13.8 mph - N/A   Overcast
11:55 AM 28.4 °F 17.5 °F 5.0 °F 37% 29.89 in 10.0 mi South 13.8 mph - N/A   Overcast
12:15 PM 28.4 °F 19.7 °F 5.0 °F 37% 29.89 in 10.0 mi SSW 9.2 mph - N/A   Overcast
12:35 PM 28.4 °F 19.7 °F 6.8 °F 40% 29.88 in 10.0 mi SSW 9.2 mph - N/A   Overcast
12:55 PM 28.4 °F 20.4 °F 6.8 °F 40% 29.87 in 10.0 mi SSW 8.1 mph - N/A   Overcast
1:15 PM 30.2 °F 21.9 °F 6.8 °F 37% 29.85 in 10.0 mi South 9.2 mph - N/A   Overcast
1:35 PM 32.0 °F 24.8 °F 6.8 °F 35% 29.85 in 10.0 mi SSW 8.1 mph - N/A   Overcast
1:55 PM 32.0 °F 24.8 °F 6.8 °F 35% 29.85 in 10.0 mi SW 8.1 mph - N/A   Overcast
2:15 PM 33.8 °F 24.8 °F 6.8 °F 32% 29.84 in 10.0 mi SW 12.7 mph - N/A   Overcast
2:35 PM 33.8 °F 24.8 °F 8.6 °F 35% 29.84 in 10.0 mi SSW 12.7 mph - N/A   Overcast
2:55 PM 35.6 °F 26.2 °F 8.6 °F 33% 29.84 in 10.0 mi SW 15.0 mph - N/A   Overcast
3:15 PM 37.4 °F 28.5 °F 10.4 °F 33% 29.84 in 10.0 mi SW 15.0 mph - N/A   Overcast
3:35 PM 37.4 °F 28.5 °F 10.4 °F 33% 29.84 in 10.0 mi SW 15.0 mph - N/A   Overcast
3:55 PM 37.4 °F 29.3 °F 10.4 °F 33% 29.85 in 10.0 mi SW 12.7 mph - N/A   Overcast
4:15 PM 37.4 °F 31.4 °F 12.2 °F 36% 29.85 in 10.0 mi SSW 8.1 mph - N/A   Overcast
4:35 PM 37.4 °F 30.8 °F 12.2 °F 36% 29.85 in 10.0 mi SSW 9.2 mph - N/A   Overcast
4:55 PM 37.4 °F 32.1 °F 12.2 °F 36% 29.86 in 10.0 mi SW 6.9 mph - N/A   Mostly Cloudy
5:15 PM 37.4 °F 30.3 °F 12.2 °F 36% 29.86 in 10.0 mi SW 10.4 mph - N/A   Partly Cloudy
5:35 PM 35.6 °F 29.2 °F 12.2 °F 38% 29.87 in 10.0 mi SW 8.1 mph - N/A   Clear
5:55 PM 33.8 °F 27.7 °F 14.0 °F 44% 29.88 in 10.0 mi SW 6.9 mph - N/A   Clear
6:15 PM 33.8 °F 28.6 °F 14.0 °F 44% 29.88 in 10.0 mi SSW 5.8 mph - N/A   Clear
6:35 PM 33.8 °F 28.6 °F 14.0 °F 44% 29.88 in 10.0 mi SSW 5.8 mph - N/A   Clear
6:55 PM 30.2 °F 23.4 °F 14.0 °F 51% 29.89 in 10.0 mi SSW 6.9 mph - N/A   Clear
7:15 PM 33.8 °F 27.0 °F 15.8 °F 48% 29.90 in 10.0 mi SSW 8.1 mph - N/A   Clear
7:35 PM 33.8 °F 27.7 °F 15.8 °F 48% 29.91 in 10.0 mi SSW 6.9 mph - N/A   Partly Cloudy
7:55 PM 33.8 °F 27.7 °F 15.8 °F 48% 29.91 in 10.0 mi SSW 6.9 mph - N/A   Partly Cloudy
8:15 PM 33.8 °F 27.7 °F 15.8 °F 48% 29.91 in 10.0 mi SSW 6.9 mph - N/A   Clear
8:35 PM 32.0 °F 26.4 °F 15.8 °F 51% 29.92 in 10.0 mi SSW 5.8 mph - N/A   Partly Cloudy
8:55 PM 30.2 °F 23.4 °F 15.8 °F 55% 29.92 in 10.0 mi SSW 6.9 mph - N/A   Scattered Clouds
9:15 PM 30.2 °F 24.3 °F 15.8 °F 55% 29.92 in 10.0 mi SSW 5.8 mph - N/A   Mostly Cloudy
10:15 PM 28.4 °F 21.2 °F 15.8 °F 59% 29.93 in 10.0 mi SSW 6.9 mph - N/A   Partly Cloudy
10:35 PM 30.2 °F 23.4 °F 15.8 °F 55% 29.94 in 10.0 mi SW 6.9 mph - N/A   Clear
10:55 PM 28.4 °F 20.4 °F 15.8 °F 59% 29.94 in 10.0 mi SW 8.1 mph - N/A   Clear
11:15 PM 28.4 °F 22.2 °F 15.8 °F 59% 29.96 in 10.0 mi SW 5.8 mph - N/A   Clear
11:35 PM 26.6 °F 21.2 °F 15.8 °F 64% 29.96 in 10.0 mi SW 4.6 mph - N/A   Clear
11:55 PM 24.8 °F - 17.6 °F 74% 29.96 in 10.0 mi Calm Calm - N/A   Clear